2021-033F (48253 NORAD) Tracking and Keplerian Element Data

This shows tracking and keplerian element data for the satellite.

Feedback or suggestion? Click here.




ElementValue
Catalog48253
Name2021-033F
Epoch Orbit456
Epoch Day147.2591202
Epoch Year2021
RAAN222.5931
Inclination97.397
Eccentricity0.0012184
Argument of Perigee161.2942
Mean Anonmoly283.3736
Mean Motion15.21271765
Decay Rate1.005E-05
L11 48253U 21033F 21147.25912020 .00001005 00000-0 47982-4 0 9997
L22 48253 97.3970 222.5931 0012184 161.2942 283.3736 15.21271765 4568

Live tracking and technical data element details for 2021-033F (NORAD 48253). 2021-033F can be tracked NOW for your location showing map with azimuth and elevation plus other details from your city location.

Track the satellite on the map from your city or location and see movement details for azimuth, elevation, latitude, longitude, range, height, and movement on the map or in text.







IsCatalogInMostPopularTable: catalog: 48253, numindb: 33
Update: records affected: 1



GetName: 48253 2021-033F

Hit Count: updated at: Sat, 31 Jul 2021 15:43:03 GMT